Wind_Speed
40 41 41 42 42 42 42 43 44 45 45 45 46 47 47 48 48 48 48 48 49 48 48 48 49 50 50 50 51 51 51 50 50 50 50 51 52 53
39 40 41 41 41 41 41 42 43 44 45 45 46 45 46 47 47 47 46 47 47 47 47 48 49 49 49 50 49 48 48 47 47 47 48 48 49 50
38 39 40 40 40 40 40 41 42 43 44 44 44 44 44 45 45 45 45 45 45 46 46 46 46 46 46 46 45 44 44 45 45 45 45 45 46 47
38 38 39 38 38 39 40 41 41 41 42 42 42 42 42 42 42 42 42 43 43 44 44 43 43 43 43 42 41 41 42 42 41 41 42 43 43 43
36 36 36 37 37 38 38 38 39 39 39 39 40 40 39 39 40 40 40 41 41 40 40 40 39 38 38 38 37 37 37 37 36 36 37 38 37 37
34 34 35 35 35 35 35 35 36 36 36 36 36 36 36 36 37 37 37 37 36 36 36 35 34 33 33 34 33 33 33 32 33 33 34 34 34 34
31 32 32 32 32 32 32 32 32 32 32 33 33 33 33 34 34 34 34 33 32 31 31 30 30 30 29 28 28 28 29 29 29 30 30 30 30 31
30 30 30 30 30 30 31 31 31 30 30 29 30 30 30 30 29 29 29 28 27 27 26 26 25 25 24 24 24 24 24 24 25 26 26 27 27 28
27 28 28 28 28 28 27 27 27 27 27 27 27 27 26 26 26 25 24 23 22 22 21 21 21 20 21 20 20 20 20 21 22 23 23 24 25 25
24 24 24 25 25 25 25 24 24 24 24 24 23 23 22 22 21 20 19 19 18 18 18 17 16 16 16 16 17 17 18 19 20 21 22 22 21 22
21 21 21 21 22 22 22 22 22 22 22 21 20 19 18 17 16 15 15 15 15 14 14 13 12 13 13 14 15 16 17 18 19 20 20 19 20 20
19 19 19 19 20 20 19 19 19 19 18 18 17 15 14 13 13 12 11 11 11 10 10 10 11 11 12 13 14 15 16 17 17 18 18 19 19 19
17 18 17 17 18 17 17 16 16 16 15 14 12 11 10 10 9 9 8 8 8 8 8 9 9 10 11 12 13 14 16 17 17 17 17 17 18 18
15 15 15 15 15 14 14 14 13 12 11 10 9 8 7 7 6 6 6 6 6 7 8 8 8 9 10 11 12 13 15 16 16 17 17 17 17 18
13 13 13 12 12 12 11 10 9 8 7 7 6 6 5 5 5 5 5 5 6 7 7 7 7 8 10 11 12 13 14 15 15 16 17 17 18 18
11 11 11 11 10 9 8 7 6 6 5 5 4 4 4 3 3 3 3 4 6 7 7 7 8 9 10 11 11 13 14 14 15 16 17 17 18 18
9 9 9 8 7 7 7 6 5 4 3 3 2 2 2 2 2 2 3 4 5 5 6 7 8 9 10 11 12 13 14 14 15 16 17 18 18 19
7 7 7 6 6 6 5 4 3 3 2 1 1 1 0 0 1 2 3 4 4 5 5 6 8 9 10 11 12 13 14 14 15 16 17 18 18 19
6 6 6 5 5 5 4 3 2 1 1 1 1 1 1 1 2 3 3 4 5 6 6 7 8 9 10 11 12 13 14 14 15 16 17 18 18 19
5 5 4 4 4 3 3 2 1 0 1 1 2 2 3 3 3 3 4 5 5 6 6 7 8 9 10 11 12 13 13 14 15 16 17 17 18 19
4 4 3 3 3 3 2 1 1 1 2 2 3 3 4 4 4 4 5 5 6 6 7 8 8 9 10 11 12 13 13 14 15 16 17 18 19 19
4 4 3 3 3 2 2 2 2 3 3 4 4 5 5 5 5 5 5 6 6 7 7 8 9 9 10 11 12 13 14 15 15 16 17 18 19 20
5 5 4 4 4 3 4 4 4 4 5 5 6 6 6 6 6 6 6 6 6 7 7 8 9 10 10 11 12 13 14 15 16 17 18 18 19 20
Wind_Direction
268 270 272 273 274 274 274 276 277 277 278 279 279 280 281 281 282 284 284 284 284 284 284 284 284 284 284 285 284 284 284 284 282 280 279 278 278 277
270 271 273 274 274 275 276 277 278 279 280 281 281 282 282 283 284 285 284 284 285 285 285 285 285 285 285 285 285 285 285 285 283 282 281 281 280 280
272 273 273 274 275 277 278 279 279 280 281 281 282 282 283 283 284 284 284 285 285 285 286 286 286 286 286 286 286 286 286 286 285 284 284 283 282 281
273 274 275 275 277 278 279 280 281 281 281 282 283 284 285 285 285 286 286 286 286 287 287 287 287 287 287 287 287 287 287 287 286 286 286 285 285 285
274 275 276 277 279 280 280 281 281 281 282 283 284 285 285 286 286 286 286 286 287 287 288 289 288 289 290 290 290 290 290 290 289 288 289 289 288 287
275 275 276 278 280 281 281 281 282 282 283 284 285 285 286 286 287 288 288 288 288 290 291 291 291 292 292 292 293 293 293 293 293 292 293 294 293 293
275 276 278 280 281 281 281 282 284 285 285 285 286 286 286 287 288 289 290 290 289 291 293 294 296 296 296 296 296 296 297 298 298 298 298 298 298 297
277 277 278 281 283 284 284 284 285 286 286 287 288 287 288 288 290 291 292 293 293 294 295 297 299 300 301 302 303 304 305 305 305 305 305 304 303 302
279 279 281 282 282 284 285 286 286 287 287 288 290 290 290 290 290 292 293 295 296 298 300 302 304 305 306 309 312 314 316 315 315 315 314 311 310 311
282 282 283 284 285 285 286 287 289 289 290 291 293 293 292 292 293 294 296 298 300 301 303 306 309 312 316 318 319 321 322 322 323 324 324 323 322 322
285 284 286 287 288 288 289 290 290 292 293 294 295 297 297 297 298 298 300 302 305 307 308 314 318 322 326 327 327 328 328 329 330 333 335 334 333 333
287 289 290 291 292 293 292 293 293 295 295 295 296 297 298 300 301 303 306 309 313 315 318 323 326 328 331 335 336 337 337 338 340 341 342 343 344 345
291 293 295 297 297 296 295 294 294 294 296 297 296 295 297 300 304 310 314 317 321 323 325 329 332 335 339 342 343 344 346 349 351 352 352 354 354 356
295 297 298 300 300 299 298 296 295 295 297 298 297 297 296 299 306 313 321 326 330 330 332 337 340 344 347 349 351 354 357 359 360 0 1 1 3 4
297 298 301 304 304 303 301 300 299 299 299 297 296 295 293 300 312 321 332 339 342 345 348 352 354 357 359 360 1 4 5 7 7 8 9 9 8 8
301 301 303 304 305 306 304 301 300 300 302 301 297 293 302 317 327 334 348 358 359 1 4 8 10 10 8 8 9 10 10 10 11 12 13 12 11 10
300 302 303 304 305 307 307 303 301 297 298 300 297 299 310 329 353 8 12 17 16 16 17 17 19 18 16 15 14 14 14 13 13 14 13 13 12 11
303 304 306 307 308 308 307 303 299 294 292 281 257 239 254 6 26 28 29 31 32 27 26 26 25 22 19 17 17 18 17 17 16 15 14 14 13 13
310 310 312 316 317 312 311 308 301 282 257 219 185 169 134 87 55 45 43 44 38 36 36 34 31 27 23 21 21 22 21 20 19 17 16 15 14 14
326 327 327 327 328 331 329 326 317 238 170 148 133 128 116 95 76 71 64 54 49 47 45 40 34 29 26 23 22 22 23 21 19 17 16 16 15 14
345 344 344 344 346 351 357 16 63 104 119 124 120 117 113 104 94 89 77 64 59 55 48 40 34 29 26 24 23 23 22 21 19 17 15 14 13 13
11 8 7 10 14 23 39 57 79 99 112 117 117 115 112 107 104 97 84 74 65 58 48 41 35 31 28 26 23 22 20 19 17 15 13 13 12 11
29 29 31 35 44 54 64 74 86 98 106 111 113 111 107 106 105 97 86 77 67 58 47 39 33 30 27 25 22 20 18 16 15 14 13 11 10 8
Height
5779 5778 5777 5777 5776 5775 5773 5772 5771 5768 5766 5764 5762 5759 5757 5754 5752 5749 5746 5743 5740 5738 5735 5732 5728 5725 5722 5719 5716 5713 5710 5707 5704 5701 5698 5696 5693 5690
5769 5768 5767 5766 5765 5764 5762 5761 5759 5757 5755 5753 5751 5748 5745 5743 5740 5737 5734 5731 5728 5725 5722 5719 5716 5712 5709 5706 5703 5700 5697 5693 5690 5687 5684 5681 5678 5675
5758 5757 5756 5755 5754 5753 5751 5750 5748 5746 5743 5741 5739 5737 5734 5732 5728 5725 5722 5719 5716 5714 5710 5707 5703 5700 5697 5694 5691 5687 5684 5681 5677 5674 5670 5667 5664 5661
5748 5747 5746 5745 5744 5742 5741 5739 5737 5735 5732 5730 5728 5726 5723 5720 5717 5714 5711 5708 5705 5702 5699 5696 5692 5688 5685 5682 5679 5676 5672 5669 5665 5662 5659 5655 5652 5648
5738 5737 5736 5735 5733 5732 5730 5728 5726 5724 5722 5720 5717 5715 5712 5710 5707 5704 5701 5698 5695 5692 5689 5685 5682 5678 5675 5672 5669 5665 5662 5659 5655 5651 5648 5644 5640 5636
5729 5728 5727 5726 5724 5722 5720 5718 5716 5714 5712 5710 5707 5705 5703 5700 5697 5695 5692 5689 5686 5683 5680 5676 5673 5669 5667 5663 5660 5657 5653 5649 5646 5642 5639 5635 5630 5626
5720 5719 5718 5716 5715 5713 5711 5709 5707 5705 5703 5700 5698 5695 5693 5691 5688 5685 5683 5680 5677 5674 5671 5668 5665 5662 5659 5655 5652 5649 5645 5642 5638 5634 5630 5626 5622 5618
5712 5710 5709 5708 5706 5704 5703 5700 5698 5696 5694 5691 5689 5687 5684 5682 5680 5678 5675 5673 5671 5668 5665 5662 5659 5656 5652 5649 5646 5642 5639 5635 5632 5628 5624 5620 5615 5611
5704 5703 5701 5699 5698 5696 5694 5692 5690 5688 5686 5684 5682 5679 5677 5675 5674 5672 5669 5667 5665 5662 5660 5657 5654 5651 5647 5644 5641 5637 5634 5630 5627 5623 5618 5614 5610 5605
5697 5696 5694 5692 5691 5689 5687 5685 5683 5681 5679 5677 5675 5673 5671 5670 5668 5666 5664 5662 5660 5658 5656 5653 5650 5647 5644 5640 5637 5634 5631 5627 5623 5619 5614 5610 5605 5601
5691 5689 5688 5686 5684 5682 5681 5679 5677 5675 5673 5671 5670 5668 5666 5665 5663 5662 5660 5659 5657 5655 5652 5650 5647 5644 5641 5638 5634 5631 5628 5624 5620 5616 5611 5607 5602 5597
5686 5684 5682 5680 5678 5676 5675 5674 5672 5670 5669 5667 5665 5664 5662 5661 5660 5658 5657 5655 5654 5652 5649 5647 5645 5642 5640 5636 5633 5629 5625 5622 5618 5614 5609 5605 5600 5595
5681 5679 5677 5675 5673 5671 5670 5669 5667 5666 5664 5663 5662 5661 5659 5658 5657 5656 5655 5653 5651 5650 5648 5646 5643 5641 5638 5635 5632 5628 5624 5620 5616 5612 5608 5604 5599 5594
5677 5675 5673 5671 5669 5668 5666 5665 5663 5662 5661 5660 5659 5658 5657 5656 5655 5654 5653 5651 5650 5648 5646 5644 5642 5640 5637 5634 5631 5628 5624 5620 5616 5612 5608 5603 5599 5595
5673 5671 5670 5668 5666 5665 5663 5661 5660 5659 5659 5658 5657 5656 5655 5654 5654 5653 5651 5650 5649 5647 5645 5643 5641 5639 5637 5634 5631 5628 5624 5621 5617 5612 5608 5604 5600 5595
5670 5668 5667 5665 5663 5661 5660 5659 5658 5657 5656 5656 5655 5654 5654 5653 5652 5652 5651 5650 5648 5647 5645 5643 5641 5639 5637 5634 5631 5628 5625 5621 5617 5613 5609 5605 5601 5596
5667 5666 5664 5662 5661 5659 5658 5657 5656 5655 5655 5654 5654 5653 5653 5652 5652 5651 5650 5649 5648 5647 5645 5644 5642 5640 5637 5635 5632 5629 5625 5622 5618 5614 5610 5606 5602 5597
5665 5663 5662 5660 5659 5657 5656 5655 5655 5654 5653 5653 5653 5652 5652 5652 5651 5651 5650 5649 5648 5647 5645 5644 5642 5640 5638 5635 5633 5629 5626 5623 5619 5616 5612 5608 5603 5599
5663 5661 5660 5658 5657 5656 5655 5654 5653 5653 5652 5652 5652 5652 5652 5652 5651 5651 5650 5649 5648 5647 5646 5644 5643 5641 5639 5636 5633 5630 5627 5624 5620 5617 5613 5609 5605 5601
5661 5660 5658 5657 5656 5655 5654 5653 5653 5652 5652 5652 5652 5652 5652 5651 5651 5651 5650 5649 5649 5648 5646 5645 5643 5641 5639 5637 5634 5632 5628 5625 5622 5618 5615 5611 5607 5602
5660 5659 5658 5657 5655 5654 5653 5653 5652 5652 5652 5651 5651 5651 5652 5652 5652 5651 5651 5650 5649 5649 5648 5646 5644 5642 5640 5638 5635 5633 5630 5626 5623 5619 5616 5612 5608 5603
5660 5659 5658 5656 5655 5654 5653 5653 5652 5652 5652 5652 5652 5652 5652 5652 5652 5652 5652 5652 5651 5650 5649 5647 5646 5644 5642 5639 5636 5634 5631 5628 5624 5621 5617 5613 5609 5604
5661 5659 5658 5656 5655 5654 5654 5653 5653 5652 5652 5652 5653 5653 5653 5653 5654 5653 5653 5653 5652 5651 5650 5649 5647 5645 5643 5640 5637 5635 5632 5628 5625 5622 5618 5614 5609 5605